Location: Kawakawa
(35.3830°S, 174.0670°E)
Time: 14:36:29
(UTC+13:00)

A-11 Canister half - Pass Details

Date: 08 December 2019
Orbit: 1525 x 1684 km, 47.3° (Epoch: 22 January)

Event Time Altitude Azimuth Distance (km) Brightness Sun altitude
Rises 02:20:44 0° 236° (SW) 4,725 11.8 -30.0°
Reaches altitude 10° 02:23:46 10° 236° (SW) 3,755 11.2 -29.8°
Maximum altitude 02:33:21 89° 323° (NW) 1,599 8.9 -29.1°
Drops below altitude 10° 02:43:12 10° 52° (NE) 3,857 10.9 -28.4°
Sets 02:46:22 0° 52° (NE) 4,860 11.5 -28.1°
